| time (UTC) | temp F | wind direction | speed knots | gust knots | rain 1hr in | rain 24hr in | rain mn in | humidity % | barometer mb |
| 20260503014533 | 70 | 309 | 0.0 | 0.0 | 0.00 | 0.00 | 0.00 | 47 | 1009.7 |
| 20260503013032 | 70 | 309 | 0.0 | 0.0 | 0.00 | 0.00 | 0.00 | 49 | 1009.6 |
| 20260503011534 | 71 | 296 | 0.0 | 0.0 | 0.00 | 0.00 | 0.00 | 49 | 1009.4 |
| 20260503010030 | 72 | 302 | 0.0 | 0.0 | 0.00 | 0.00 | 0.00 | 49 | 1009.5 |
| 20260503004530 | 72 | 285 | 0.0 | 0.0 | 0.00 | 0.00 | 0.00 | 47 | 1009.4 |
| 20260503003029 | 73 | 279 | 0.0 | 0.0 | 0.00 | 0.00 | 0.00 | 41 | 1009.4 |
| 20260503001527 | 75 | 311 | 0.0 | 2.6 | 0.00 | 0.00 | 0.00 | 39 | 1009.4 |
| 20260503000033 | 75 | 292 | 0.0 | 0.9 | 0.00 | 0.00 | 0.00 | 36 | 1009.2 |
| 20260502234525 | 76 | 319 | 0.0 | 0.0 | 0.00 | 0.00 | 0.00 | 30 | 1009.2 |
| 20260502233025 | 76 | 313 | 0.0 | 4.3 | 0.00 | 0.00 | 0.00 | 29 | 1009.3 |
| 20260502231525 | 76 | 285 | 0.0 | 0.0 | 0.00 | 0.00 | 0.00 | 32 | 1009.0 |
| 20260502230023 | 76 | 329 | 0.0 | 7.0 | 0.00 | 0.00 | 0.00 | 29 | 1009.2 |
| 20260502224519 | 76 | 308 | 0.0 | 0.0 | 0.00 | 0.00 | 0.00 | 30 | 1009.4 |
| 20260502223018 | 77 | 355 | 0.0 | 7.0 | 0.00 | 0.00 | 0.00 | 37 | 1009.8 |
| 20260502221515 | 78 | 290 | 0.0 | 9.6 | 0.00 | 0.00 | 0.00 | 36 | 1010.1 |
| 20260502220012 | 79 | 289 | 0.0 | 8.7 | 0.00 | 0.00 | 0.00 | 33 | 1010.1 |
| 20260502214513 | 80 | 306 | 0.0 | 7.8 | 0.00 | 0.00 | 0.00 | 30 | 1010.3 |
| 20260502213009 | 81 | 282 | 0.0 | 0.9 | 0.00 | 0.00 | 0.00 | 29 | 1010.5 |
| 20260502211516 | 83 | 315 | 0.0 | 4.3 | 0.00 | 0.00 | 0.00 | 28 | 1010.4 |
| 20260502210006 | 84 | 338 | 0.0 | 1.7 | 0.00 | 0.00 | 0.00 | 27 | 1010.4 |
| 20260502204504 | 83 | 303 | 0.0 | 7.0 | 0.00 | 0.00 | 0.00 | 27 | 1010.7 |
| 20260502203001 | 84 | 217 | 0.0 | 5.2 | 0.00 | 0.00 | 0.00 | 29 | 1011.0 |
| 20260502201604 | 84 | 303 | 0.0 | 1.7 | 0.00 | 0.00 | 0.00 | 28 | 1011.1 |
| 20260502200105 | 84 | 210 | 0.0 | 0.0 | 0.00 | 0.00 | 0.00 | 21 | 1011.5 |
| 20260502194617 | 84 | 212 | 0.0 | 0.0 | 0.00 | 0.00 | 0.00 | 17 | 1011.3 |
| 20260502193059 | 84 | 12 | 0.0 | 0.0 | 0.00 | 0.00 | 0.00 | 17 | 1011.5 |
| 20260502191554 | 82 | 140 | 0.0 | 7.8 | 0.00 | 0.00 | 0.00 | 18 | 1011.5 |
| 20260502190104 | 82 | 150 | 0.0 | 9.6 | 0.00 | 0.00 | 0.00 | 18 | 1011.8 |
| 20260502184558 | 82 | 140 | 0.0 | 8.7 | 0.00 | 0.00 | 0.00 | 18 | 1011.8 |
| 20260502183051 | 83 | 84 | 0.9 | 7.8 | 0.00 | 0.00 | 0.00 | 17 | 1011.8 |
| 20260502181547 | 83 | 128 | 0.0 | 8.7 | 0.00 | 0.00 | 0.00 | 18 | 1012.1 |
| 20260502180106 | 81 | 144 | 0.0 | 2.6 | 0.00 | 0.00 | 0.00 | 19 | 1012.1 |
| 20260502163030 | 76 | 341 | 0.0 | 6.1 | 0.00 | 0.00 | 0.00 | 23 | 1012.3 |
| 20260502161525 | 75 | 111 | 0.0 | 3.5 | 0.00 | 0.00 | 0.00 | 24 | 1012.3 |
| 20260502151507 | 59 | 144 | 0.0 | 0.0 | 0.00 | 0.00 | 0.00 | 49 | 1012.7 |
| 20260502123045 | 49 | 121 | 0.0 | 0.0 | 0.00 | 0.00 | 0.00 | 63 | 1011.8 |
| 20260502121555 | 49 | 121 | 0.0 | 0.0 | 0.00 | 0.00 | 0.00 | 65 | 1011.8 |
| 20260502114542 | 49 | 121 | 0.0 | 0.0 | 0.00 | 0.00 | 0.00 | 64 | 1011.9 |
| 20260502113041 | 49 | 121 | 0.0 | 0.0 | 0.00 | 0.00 | 0.00 | 63 | 1011.8 |
| 20260502111542 | 49 | 121 | 0.0 | 0.0 | 0.00 | 0.00 | 0.00 | 63 | 1011.8 |
| 20260502110042 | 49 | 121 | 0.0 | 0.0 | 0.00 | 0.00 | 0.00 | 63 | 1011.7 |
| 20260502104544 | 49 | 121 | 0.0 | 0.0 | 0.00 | 0.00 | 0.00 | 65 | 1011.6 |
| 20260502103049 | 49 | 121 | 0.0 | 0.0 | 0.00 | 0.00 | 0.00 | 63 | 1011.6 |
| 20260502101555 | 49 | 121 | 0.0 | 0.0 | 0.00 | 0.00 | 0.00 | 62 | 1011.6 |
| 20260502071516 | 51 | 308 | 0.0 | 0.0 | 0.00 | 0.00 | 0.00 | 67 | 1012.8 |
| 20260502070021 | 51 | 308 | 0.0 | 0.0 | 0.00 | 0.00 | 0.00 | 67 | 1012.8 |
| 20260502064526 | 51 | 308 | 0.0 | 0.0 | 0.00 | 0.00 | 0.00 | 66 | 1012.6 |
| 20260502063013 | 51 | 308 | 0.0 | 0.0 | 0.00 | 0.00 | 0.00 | 68 | 1012.7 |
| 20260502061511 | 51 | 307 | 0.0 | 0.0 | 0.00 | 0.00 | 0.00 | 66 | 1012.8 |
| 20260502060011 | 52 | 307 | 0.0 | 0.0 | 0.00 | 0.00 | 0.00 | 67 | 1012.8 |
| 20260502054513 | 52 | 307 | 0.0 | 0.0 | 0.00 | 0.00 | 0.00 | 68 | 1012.8 |
| 20260502053011 | 52 | 307 | 0.0 | 0.0 | 0.00 | 0.00 | 0.00 | 68 | 1012.7 |
| 20260502051510 | 52 | 307 | 0.0 | 0.0 | 0.00 | 0.00 | 0.00 | 67 | 1012.6 |
| 20260502050010 | 53 | 307 | 0.0 | 0.0 | 0.00 | 0.00 | 0.00 | 69 | 1012.6 |
| 20260502044510 | 54 | 307 | 0.0 | 0.0 | 0.00 | 0.00 | 0.00 | 71 | 1012.6 |
| 20260502043014 | 55 | 307 | 0.0 | 0.0 | 0.00 | 0.00 | 0.00 | 67 | 1012.4 |
| 20260502041509 | 56 | 307 | 0.0 | 0.0 | 0.00 | 0.00 | 0.00 | 71 | 1012.3 |
| 20260502040012 | 57 | 307 | 0.0 | 0.0 | 0.00 | 0.00 | 0.00 | 71 | 1012.1 |
| 20260502034507 | 58 | 307 | 0.0 | 0.0 | 0.00 | 0.00 | 0.00 | 71 | 1012.0 |
| 20260502033007 | 60 | 307 | 0.0 | 0.0 | 0.00 | 0.00 | 0.00 | 70 | 1011.9 |
| 20260502031506 | 61 | 307 | 0.0 | 0.0 | 0.00 | 0.00 | 0.00 | 67 | 1011.7 |
| 20260502030006 | 62 | 307 | 0.0 | 0.0 | 0.00 | 0.00 | 0.00 | 66 | 1011.6 |
| 20260502024506 | 63 | 307 | 0.0 | 0.0 | 0.00 | 0.00 | 0.00 | 64 | 1011.5 |
| 20260502023008 | 64 | 307 | 0.0 | 0.0 | 0.00 | 0.00 | 0.00 | 63 | 1011.4 |
| 20260502021507 | 66 | 309 | 0.0 | 0.0 | 0.00 | 0.00 | 0.00 | 61 | 1011.3 |
| 20260502020007 | 67 | 305 | 0.0 | 0.0 | 0.00 | 0.00 | 0.00 | 59 | 1011.2 |